Location: Jo�o Monlevade
(19.8374°S, 44.1429°W)
Time: 14:02:18
(UTC+00:00)

Daily predictions for brighter satellites

Satellite Brightness Start Highest point End
(mag) Time Altitude Azimuth Time Altitude Azimuth Time Altitude Azimuth
SMAP 3.7 21:14:27 10° S 21:19:06 64° WSW 21:23:42 10° NNW
Cosmos 1766 3.4 21:17:29 10° S 21:21:30 87° W 21:25:28 10° N
Cosmos 1553 Rocket 4.3 21:15:49 10° S 21:22:01 73° W 21:28:04 10° N
USA 215 3.3 21:15:40 10° SE 21:22:16 79° NE 21:28:49 10° NW
Cosmos 1943 4.0 21:20:05 10° S 21:24:59 30° ESE 21:29:51 10° NE
Feng Yun 1-1 Rocket 4.4 21:20:37 10° SSE 21:26:32 89° ENE 21:32:15 10° NNW
CZ-3C R/B 2.4 21:26:14 10° NNW 21:26:57 11° N 21:27:34 10° NNE
SL-4 R/B 4.3 21:24:32 10° WSW 21:27:37 23° WNW 21:30:33 10° N
Cosmos 2292 Rocket 4.3 21:26:40 10° NNW 21:32:07 64° W 21:36:13 10° S
IRS-1C Rocket 4.4 21:27:45 10° S 21:33:04 76° WSW 21:38:20 10° NNW
Ariane H10+ 4.2 21:25:09 10° WNW 21:33:16 20° NNW 21:37:21 10° NNE
Intelsat 5-1 Rocket 4.2 21:32:44 10° NNE 21:33:48 11° NE 21:35:04 10° ENE
Lacrosse 5 3.0 21:31:03 10° N 21:35:01 23° ENE 21:38:41 11° ESE
Intelsat 5-2 Rocket 3.4 21:34:32 10° NNW 21:36:32 23° NNE 21:38:21 14° ENE
Cosmos 2315 Rocket 4.3 21:32:26 10° SSE 21:38:23 45° E 21:44:18 10° NNE
In-Cosmos 22 4.5 21:35:48 10° NNE 21:40:47 40° E 21:45:45 10° SSE
Cosmos 1536 Rocket 3.7 21:36:29 10° N 21:40:48 78° W 21:45:10 10° S
Meteor 2-8 Rocket 4.5 21:35:50 10° S 21:42:03 89° E 21:48:13 10° N
Okean-O 2.6 21:37:50 10° SSE 21:42:18 77° E 21:46:44 10° N
Cosmos 1953 3.9 21:41:15 10° SE 21:43:19 15° ESE 21:43:19 15° ESE
FALCON 9 R/B 2.6 21:31:19 10° NW 21:44:56 83° NNE 21:48:31 15° ESE
Shenzhou-11 Module 1.6 21:42:50 10° NW 21:45:25 58° NE 21:46:48 23° ESE
CZ-2C R/B 4.3 21:42:29 10° NE 21:46:35 33° ESE 21:50:39 10° S
STARLINK-52 3.8 21:44:41 10° SSW 21:47:38 31° SE 21:48:52 23° E
NOAA 11 4.3 21:46:23 10° SSE 21:51:43 53° E 21:56:58 10° N
Cosmos 1025 Rocket 4.1 21:48:05 10° NNW 21:52:13 48° W 21:56:22 10° S
Meteor 2-15 4.4 21:47:42 10° S 21:53:45 58° E 21:59:42 10° NNE
Cosmos 1242 Rocket 2.6 21:51:26 10° N 21:54:54 50° E 21:58:26 10° SSE
Cosmos 1371 Rocket 4.2 21:50:08 10° NNW 21:55:19 74° WSW 22:00:31 10° S
YAOGAN 1 2.8 21:51:58 10° SSE 21:56:10 47° E 22:00:20 10° N
SWIFT 2.3 21:53:26 10° W 21:57:42 84° S 21:59:56 27° E
Cosmos 1455 Rocket 4.3 21:53:51 10° SSW 21:58:01 44° W 22:02:07 10° NNW
Cosmos 1624 Rocket 4.2 21:55:27 10° NNW 22:00:46 77° WSW 22:06:09 10° S
Cosmos 2251 Rocket 3.6 21:58:50 10° SSW 22:04:09 81° WNW 22:09:27 10° N
Cosmos 1603 3.9 21:58:37 10° SSW 22:04:23 78° WNW 22:10:02 10° NNE
GPS 2-12 Rocket1 3.3 22:00:05 10° W 22:04:46 61° NNW 22:07:04 28° ENE
Cosmos 1844 Rocket 3.2 22:01:44 10° NNW 22:07:17 63° WSW 22:12:51 10° S
Skynet4D Del rocket 3.5 22:02:45 10° WSW 22:08:18 78° SSE 22:10:53 32° E
SL-24 R/B - RUBIN 2 4.0 22:06:11 10° S 22:10:13 39° ESE 22:10:57 37° E
Palapa 6 Rocket 3.7 22:05:22 10° W 22:11:37 69° S 22:14:01 33° ESE
Lacrosse 4 Rocket 1.2 22:12:16 10° NNW 22:16:32 75° ENE 22:18:58 24° SSE
DMSP B5D2-2 4.1 22:13:59 10° NNE 22:19:07 57° ESE 22:24:19 10° S
Cosmos 1470 3.8 22:20:39 10° SSW 22:24:24 46° W 22:28:06 10° NNW
Cosmos 1420 Rocket 3.8 22:23:08 10° NNW 22:28:18 86° ENE 22:33:32 10° SSE
CZ-4 R/B 2.8 22:25:21 10° S 22:29:10 38° WSW 22:32:52 10° NW
Delta 2 Rocket 4.1 22:23:18 10° WSW 22:29:12 56° S 22:31:00 42° ESE
ASTRO E2 3.1 22:25:44 10° SW 22:29:22 50° S 22:29:22 50° S
Aurora 2 Rocket 4.4 22:27:06 10° NNW 22:28:34 17° N 22:28:34 17° N
SL-24 R/B 3.9 22:34:11 62° NW 22:34:35 69° WNW 22:38:21 10° SSW
GPS 2-04 Rocket1 3.9 22:38:26 10° WSW 22:42:10 36° NW 22:42:17 35° NNW
SL-08 ROCKET BODY 4.2 22:36:16 10° N 22:42:10 77° E 22:48:04 10° S
deb Centaur AC-2 4.3 22:38:40 10° WNW 22:43:35 64° SSW 22:43:37 64° SSW
BREEZE-M DEB (TANK) 4.0 22:41:23 10° WNW 22:44:41 33° WSW 22:44:41 33° WSW
CZ-2C R/B 2.6 22:48:45 44° N 22:50:28 80° WNW 22:55:53 10° SSW
GPS 2-14 Rocket1 4.3 22:49:02 10° WNW 22:51:24 32° NW 22:51:24 32° NW
ATLAS 5 CENTAUR R/B 2.3 22:50:13 10° SW 22:54:19 49° W 22:54:19 49° W
Cosmos 1386 Rocket 4.5 22:48:49 10° N 22:54:49 78° W 23:01:00 10° S
Cosmos 2278 Rocket 4.0 22:49:21 10° N 22:50:51 19° N 22:50:51 19° N
Meteor 2-5 Rocket 3.8 22:51:25 10° NNW 22:56:55 72° W 23:02:30 10° S
MOS 1 Rocket 3.9 22:59:34 51° NNW 23:00:45 66° W 23:06:02 10° SSW
Cosmos 1452 Rocket 4.2 23:01:52 10° NNW 23:07:00 52° WSW 23:07:51 47° SW
Lacrosse 5 3.5 23:13:17 10° WNW 23:17:46 31° SW 23:17:59 30° SW
USA 229 DEB 4.3 23:17:08 10° NNW 23:22:41 52° NNW 23:22:41 52° NNW
USA 229 4.4 23:17:14 10° NNW 23:22:40 51° NNW 23:22:40 51° NNW
